Regional Weather Roundup
Issued by NWS

Home | Current Version | Previous Version | Graphics & Text | Print | Product List | Glossary On
Versions: 1 2 3 4 5 6 7 8 9 10 11 12 13 14 15 16 17 18 19 20 21 22 23 24 25 26 27 28 29 30 31 32 33 34 35 36 37 38 39 40 41 42 43 44 45 46 47 48 49 50
000
ASUS45 KBOU 090207
RWRCO

WEATHER ROUNDUP FOR COLORADO
NATIONAL WEATHER SERVICE DENVER/BOULDER CO
700 PM MST THU DEC 08 2016

NOTE: "FAIR" INDICATES FEW OR NO CLOUDS BELOW 12000 FEET WITH NO
SIGNIFICANT WEATHER AND/OR OBSTRUCTIONS TO VISIBILITY.

COZ001>005-013-030-031-090300-
...NORTHWEST COLORADO...

CITY           SKY/WX    TMP DP  RH WIND       PRES   REMARKS
CRAIG          CLOUDY    20  12  71 E9        30.18F WCI   9
HAYDEN         CLOUDY    16   9  73 SE9       30.18S WCI   4
MEEKER         CLOUDY    25  16  68 N6        30.18S WCI  18
MOUNT WERNER   NOT AVBL
STEAMBOAT SPGS CLOUDY    12   9  89 CALM      30.18S VSB 1
WALDEN           N/A     16  10  79 SE7       30.11S WCI   6
$$

COZ006>008-011-090300-
...WEST CENTRAL VALLEYS...

CITY           SKY/WX    TMP DP  RH WIND       PRES   REMARKS
GRAND JUNCTION CLOUDY    28  13  53 CALM      30.28R
MONTROSE       CLOUDY    28  12  51 E3        30.28S
EAGLE          FLURRIES  18  12  79 W3        30.25S
RIFLE            N/A    N/A N/A N/A MISG      30.26
DELTA          CLOUDY    32  11  42 NE6       30.29R WCI  26
NUCLA          CLOUDY    32   9  37 SE3       30.30R
$$

COZ017>023-064>068-090300-
...SOUTHWEST COLORADO...

CITY           SKY/WX    TMP DP  RH WIND       PRES   REMARKS
DURANGO        CLOUDY    28  11  48 NE5       30.31R WCI  23
CORTEZ         CLOUDY    28  19  69 CALM      30.29R
PAGOSA SPRINGS MOCLDY    28  12  51 NW3       30.31R
TELLURIDE      CLOUDY    28  19  66 CALM      30.26R
WOLF CREEK PAS FAIR       9   5  85 SW17      30.27R WCI -10
$$

COZ009-010-012-014-032>034-037-058>063-090300-
...CENTRAL COLORADO...

CITY           SKY/WX    TMP DP  RH WIND       PRES   REMARKS
ASPEN          NOT AVBL
BUENA VISTA    CLOUDY    27  12  52 E3        30.14S
COPPER MTN     LGT SNOW  19  12  73 MISG      30.09R VSB 3/4
BERTHOUD PASS  LGT SNOW   9  -4  56 MISG      30.02R VSB 1
COTTONWOOD PAS LGT SNOW  25  18  74 NW16G33   30.09F WCI  12
GUNNISON       LGT SNOW  17  12  80 NE3       30.29R
KREMMLING      LGT SNOW  14   9  79 CALM      30.21S
LEADVILLE      LGT SNOW  16  13  88 NE6       30.10R VSB 3/4 WCI   7
MONARCH PASS   LGT SNOW  10   9  92 W25       30.26R VSB 1   WCI -10
SALIDA         CLOUDY    32  13  45 SW6       30.23R WCI  26
SUNLIGHT       LGT SNOW  14  12  92 SW18G35   30.15R WCI  -3
WILKERSON PASS CLOUDY    12   7  79 SW21G26   30.07S WCI  -6
$$

COZ069>075-090300-
...SAN LUIS VALLEY/SANGRE DE CRISTO MOUNTAINS...

CITY           SKY/WX    TMP DP  RH WIND       PRES   REMARKS
ALAMOSA        FAIR      10   5  80 E5        30.24R WCI   2
LA VETA PASS   FAIR      19   9  63 NE22G39   30.13F WCI   3
SAGUACHE       MOCLDY    21  12  68 NW7       30.24S WCI  13
$$

COZ035-036-038>040-090300-
...NORTHERN COLORADO FRONT RANGE...

CITY           SKY/WX    TMP DP  RH WIND       PRES   REMARKS
DENVER INTL AP MOCLDY     8   2  76 CALM      30.25F
DMNS CITY PARK   N/A      9   3  78 NE3G10    30.27S
AURORA         MOCLDY     5   2  88 CALM      30.24F
FRONT RANGE AP MOCLDY    10   7  85 CALM      30.25F
ERIE MUNI ARPT FAIR       8   5  89 CALM      30.29S
BOULDER MUN AP FAIR       9   5  85 CALM      30.27S
CENTENNIAL     MOCLDY     9   5  84 CALM      30.22F
BROOMFIELD     MOCLDY     9   3  78 CALM      30.24F
FORT COLLINS   FAIR      10   3  72 CALM      30.29S
LONGMONT       FAIR      10   4  77 CALM      30.31S
$$

COZ041-046-047-076>085-087-088-090300-
...PIKES PEAK/PALMER DIVIDE AND SOUTHERN FOOTHILLS...

CITY           SKY/WX    TMP DP  RH WIND       PRES   REMARKS
COLO. SPRINGS  LGT SNOW  12   7  80 S7        30.26F FOG     WCI   1
A. F. ACADEMY  CLOUDY     9   5  83 S8        30.22F WCI  -3
SCHRIEVER AFB  NOT AVBL
ELLICOTT       CLOUDY   N/A N/A N/A SE9         N/A
FALCON         LGT SNOW   4   2  91 SW7       30.23S WCI  -8
FORT CARSON    LGT SNOW  13   8  78 SE7       30.26F WCI   3
LIMON          FAIR      10   2  69 S12       30.31S WCI  -5
MONUMENT HILL  FAIR       7   1  78 S18       30.17F WCI -12
TRINIDAD       FAIR      16   8  71 NW9       30.27S WCI   4
$$

COZ042>045-048>051-090-091-090300-
...NORTHEAST COLORADO...

CITY           SKY/WX    TMP DP  RH WIND       PRES   REMARKS
GREELEY ARPT   FAIR      11   4  73 N6        30.31F WCI   1
AKRON          FAIR       6   0  76 SE15      30.33F WCI -12
BURLINGTON     FAIR      11   2  67 S10       30.42F WCI  -3
WRAY           NOT AVBL
STERLING       FAIR      10   3  72 S5        30.37F WCI   2
HOLYOKE        FAIR       5   0  78 SE7       30.44S WCI  -7
FORT MORGAN    CLOUDY    10   5  81 NE5       30.33S WCI   1
$$

COZ086-089-092>099-090300-
...SOUTHEAST COLORADO...

CITY           SKY/WX    TMP DP  RH WIND       PRES   REMARKS
PUEBLO         FAIR      16   3  56 NE6       30.35R WCI   7
LA JUNTA       FAIR      19   5  54 E12       30.36F WCI   7
LAMAR          FAIR      15  -1  49 SE9       30.43  WCI   3
SPRINGFIELD      N/A     17   2  51 S15       30.41S WCI   2
$$



USA.gov is the U.S. government's official web portal to all federal, state and local government web resources and services.